Time,TemperatureF,DewpointF,PressureIn,WindDirection,WindDirectionDegrees,WindSpeedMPH,WindSpeedGustMPH,Humidity,HourlyPrecipIn,Conditions,Clouds,dailyrainin,SoftwareType,DateUTC
2013-07-13 00:00:00,67.5,66.0,30.10,ENE,61,2.7,4.0,95,0.00,,,0.00,VWS V14.01,2013-07-13 04:00:00,
2013-07-13 00:01:00,67.5,66.0,30.10,ENE,61,0.0,3.1,95,0.00,,,0.00,VWS V14.01,2013-07-13 04:01:00,
2013-07-13 00:02:00,67.5,66.0,30.10,ENE,61,0.0,3.1,95,0.00,,,0.00,VWS V14.01,2013-07-13 04:02:00,
2013-07-13 00:05:00,67.5,66.0,30.10,ENE,61,0.0,3.1,95,0.00,,,0.00,VWS V14.01,2013-07-13 04:05:00,
2013-07-13 00:07:00,67.5,66.0,30.10,NE,52,2.2,4.0,95,0.00,,,0.00,VWS V14.01,2013-07-13 04:07:00,
2013-07-13 00:10:00,67.5,66.0,30.10,NE,53,2.7,4.0,95,0.00,,,0.00,VWS V14.01,2013-07-13 04:10:00,
2013-07-13 00:12:00,67.5,66.0,30.10,NE,53,3.1,3.6,95,0.00,,,0.00,VWS V14.01,2013-07-13 04:12:00,
2013-07-13 00:15:00,67.5,66.0,30.10,NE,53,3.6,3.6,95,0.00,,,0.00,VWS V14.01,2013-07-13 04:15:00,
2013-07-13 00:17:00,67.3,65.8,30.10,NE,53,2.7,3.6,95,0.00,,,0.00,VWS V14.01,2013-07-13 04:17:00,
2013-07-13 00:20:00,67.5,66.0,30.10,NE,53,3.1,3.6,95,0.00,,,0.00,VWS V14.01,2013-07-13 04:20:00,
2013-07-13 00:22:00,67.5,66.0,30.10,NE,53,2.7,3.1,95,0.00,,,0.00,VWS V14.01,2013-07-13 04:22:00,
2013-07-13 00:25:00,67.3,65.8,30.10,NE,55,0.0,3.6,95,0.00,,,0.00,VWS V14.01,2013-07-13 04:25:00,
2013-07-13 00:27:00,67.3,65.8,30.10,NE,47,2.7,3.6,95,0.00,,,0.00,VWS V14.01,2013-07-13 04:27:00,
2013-07-13 00:30:00,67.3,65.8,30.10,ENE,71,3.1,4.0,95,0.00,,,0.00,VWS V14.01,2013-07-13 04:30:00,
2013-07-13 00:32:00,67.1,65.6,30.10,ENE,60,0.0,3.6,95,0.00,,,0.00,VWS V14.01,2013-07-13 04:32:00,
2013-07-13 00:35:00,67.1,65.6,30.10,ENE,60,2.7,3.6,95,0.00,,,0.00,VWS V14.01,2013-07-13 04:35:00,
2013-07-13 00:37:00,67.3,65.8,30.10,ENE,60,2.7,3.6,95,0.00,,,0.00,VWS V14.01,2013-07-13 04:37:00,
2013-07-13 00:40:00,67.3,65.8,30.10,ENE,60,3.1,3.6,95,0.00,,,0.00,VWS V14.01,2013-07-13 04:40:00,
2013-07-13 00:42:00,67.3,65.8,30.10,ENE,60,2.2,3.1,95,0.00,,,0.00,VWS V14.01,2013-07-13 04:42:00,
2013-07-13 00:45:00,67.3,65.8,30.10,ENE,60,2.2,3.1,95,0.00,,,0.00,VWS V14.01,2013-07-13 04:45:00,
2013-07-13 00:47:00,67.3,65.8,30.10,ENE,61,2.7,4.0,95,0.00,,,0.00,VWS V14.01,2013-07-13 04:47:00,
2013-07-13 00:50:00,67.1,65.6,30.10,ENE,77,3.6,4.0,95,0.04,,,0.04,VWS V14.01,2013-07-13 04:50:00,
2013-07-13 00:52:00,67.1,65.6,30.10,ENE,61,3.1,4.0,95,0.04,,,0.04,VWS V14.01,2013-07-13 04:52:00,
2013-07-13 00:55:00,67.1,65.6,30.10,ENE,61,2.7,4.0,95,0.04,,,0.04,VWS V14.01,2013-07-13 04:55:00,
2013-07-13 00:57:00,67.1,65.9,30.10,NE,46,2.7,4.0,96,0.04,,,0.04,VWS V14.01,2013-07-13 04:57:00,
2013-07-13 01:00:00,66.9,65.8,30.10,NE,48,2.7,4.0,96,0.04,,,0.04,VWS V14.01,2013-07-13 05:00:00,
2013-07-13 01:02:00,66.9,65.8,30.10,NE,53,2.2,3.1,96,0.04,,,0.04,VWS V14.01,2013-07-13 05:02:00,
2013-07-13 01:05:00,66.9,65.8,30.10,NE,53,0.0,3.1,96,0.04,,,0.04,VWS V14.01,2013-07-13 05:05:00,
2013-07-13 01:07:00,66.9,65.8,30.10,NE,53,2.7,2.7,96,0.04,,,0.04,VWS V14.01,2013-07-13 05:07:00,
2013-07-13 01:10:00,66.9,65.8,30.10,NE,53,2.2,3.6,96,0.04,,,0.04,VWS V14.01,2013-07-13 05:10:00,
2013-07-13 01:12:00,66.9,65.8,30.10,NE,46,2.7,4.9,96,0.04,,,0.04,VWS V14.01,2013-07-13 05:12:00,
2013-07-13 01:15:00,66.9,65.8,30.10,ENE,61,4.0,4.9,96,0.04,,,0.04,VWS V14.01,2013-07-13 05:15:00,
2013-07-13 01:17:00,66.9,65.8,30.10,ENE,77,2.7,4.0,96,0.04,,,0.04,VWS V14.01,2013-07-13 05:17:00,
2013-07-13 01:20:00,66.7,65.6,30.10,ENE,77,3.1,4.0,96,0.04,,,0.04,VWS V14.01,2013-07-13 05:20:00,
2013-07-13 01:22:00,66.7,65.6,30.10,ENE,77,3.1,3.1,96,0.04,,,0.04,VWS V14.01,2013-07-13 05:22:00,
2013-07-13 01:25:00,66.7,65.6,30.10,ENE,60,3.1,4.9,96,0.04,,,0.04,VWS V14.01,2013-07-13 05:25:00,
2013-07-13 01:27:00,66.7,65.6,30.10,ENE,62,2.2,3.1,96,0.04,,,0.04,VWS V14.01,2013-07-13 05:27:00,
2013-07-13 01:30:00,66.7,65.6,30.10,ENE,61,3.1,3.1,96,0.04,,,0.04,VWS V14.01,2013-07-13 05:30:00,
2013-07-13 01:32:00,66.7,65.6,30.10,ENE,63,2.2,3.1,96,0.04,,,0.04,VWS V14.01,2013-07-13 05:32:00,
2013-07-13 01:35:00,66.7,65.6,30.10,ENE,63,0.0,3.1,96,0.04,,,0.04,VWS V14.01,2013-07-13 05:35:00,
2013-07-13 01:37:00,66.6,65.4,30.10,ENE,78,2.7,3.6,96,0.04,,,0.04,VWS V14.01,2013-07-13 05:37:00,
2013-07-13 01:40:00,66.7,65.6,30.10,ENE,78,3.6,3.6,96,0.04,,,0.04,VWS V14.01,2013-07-13 05:40:00,
2013-07-13 01:42:00,66.6,65.4,30.10,ENE,78,2.7,3.6,96,0.04,,,0.04,VWS V14.01,2013-07-13 05:42:00,
2013-07-13 01:45:00,66.6,65.4,30.10,ENE,78,0.0,3.6,96,0.04,,,0.04,VWS V14.01,2013-07-13 05:45:00,
2013-07-13 01:47:00,66.6,65.4,30.10,ENE,78,0.0,2.7,96,0.04,,,0.04,VWS V14.01,2013-07-13 05:47:00,
2013-07-13 01:50:00,66.6,65.4,30.10,ENE,78,2.2,2.7,96,0.04,,,0.04,VWS V14.01,2013-07-13 05:50:00,
2013-07-13 01:52:00,66.6,65.4,30.10,ENE,78,0.0,3.6,96,0.00,,,0.04,VWS V14.01,2013-07-13 05:52:00,
2013-07-13 01:55:00,66.6,65.4,30.10,ENE,78,2.7,3.6,96,0.00,,,0.04,VWS V14.01,2013-07-13 05:55:00,
2013-07-13 01:57:00,66.6,65.4,30.10,ENE,72,3.6,4.9,96,0.00,,,0.04,VWS V14.01,2013-07-13 05:57:00,
2013-07-13 02:00:00,66.4,65.2,30.10,ENE,73,2.7,4.9,96,0.00,,,0.04,VWS V14.01,2013-07-13 06:00:00,
2013-07-13 02:02:00,66.6,65.4,30.10,ENE,73,0.0,2.7,96,0.00,,,0.04,VWS V14.01,2013-07-13 06:02:00,
2013-07-13 02:05:00,66.4,65.2,30.10,ENE,73,0.0,2.7,96,0.00,,,0.04,VWS V14.01,2013-07-13 06:05:00,
2013-07-13 02:07:00,66.4,65.2,30.10,ENE,73,2.2,3.6,96,0.00,,,0.04,VWS V14.01,2013-07-13 06:07:00,
2013-07-13 02:10:00,66.4,65.2,30.10,ENE,73,0.0,3.6,96,0.00,,,0.04,VWS V14.01,2013-07-13 06:10:00,
2013-07-13 02:12:00,66.4,65.2,30.10,ENE,73,0.0,3.6,96,0.00,,,0.04,VWS V14.01,2013-07-13 06:12:00,
2013-07-13 02:15:00,66.4,65.2,30.10,ENE,73,0.0,3.6,96,0.00,,,0.04,VWS V14.01,2013-07-13 06:15:00,
2013-07-13 02:17:00,66.4,65.2,30.10,ENE,73,3.6,3.6,96,0.00,,,0.04,VWS V14.01,2013-07-13 06:17:00,
2013-07-13 02:20:00,66.4,65.2,30.10,ENE,73,0.0,3.6,96,0.00,,,0.04,VWS V14.01,2013-07-13 06:20:00,
2013-07-13 02:22:00,66.2,65.0,30.10,East,84,2.2,4.0,96,0.00,,,0.04,VWS V14.01,2013-07-13 06:22:00,
2013-07-13 02:25:00,66.2,65.0,30.10,East,98,0.0,4.0,96,0.00,,,0.04,VWS V14.01,2013-07-13 06:25:00,
2013-07-13 02:27:00,66.2,65.0,30.10,East,98,2.7,2.7,96,0.00,,,0.04,VWS V14.01,2013-07-13 06:27:00,
2013-07-13 02:30:00,66.2,65.0,30.10,East,98,0.0,2.7,96,0.00,,,0.04,VWS V14.01,2013-07-13 06:30:00,
2013-07-13 02:32:00,66.4,65.2,30.10,East,98,0.0,3.1,96,0.00,,,0.04,VWS V14.01,2013-07-13 06:32:00,
2013-07-13 02:35:00,66.4,65.2,30.10,East,83,3.1,3.1,96,0.00,,,0.04,VWS V14.01,2013-07-13 06:35:00,
2013-07-13 02:37:00,66.4,65.2,30.10,East,84,0.0,3.1,96,0.00,,,0.04,VWS V14.01,2013-07-13 06:37:00,
2013-07-13 02:40:00,66.2,65.0,30.10,ENE,65,2.2,3.6,96,0.00,,,0.04,VWS V14.01,2013-07-13 06:40:00,
2013-07-13 02:42:00,66.2,65.0,30.10,East,87,2.2,3.1,96,0.00,,,0.04,VWS V14.01,2013-07-13 06:42:00,
2013-07-13 02:45:00,66.4,65.2,30.10,ENE,65,3.1,4.0,96,0.00,,,0.04,VWS V14.01,2013-07-13 06:45:00,
2013-07-13 02:47:00,66.4,65.2,30.10,ENE,63,4.0,4.0,96,0.00,,,0.04,VWS V14.01,2013-07-13 06:47:00,
2013-07-13 02:50:00,66.2,65.0,30.10,ENE,62,2.7,4.0,96,0.00,,,0.04,VWS V14.01,2013-07-13 06:50:00,
2013-07-13 02:52:00,66.4,65.2,30.10,ENE,62,2.2,2.7,96,0.00,,,0.04,VWS V14.01,2013-07-13 06:52:00,
2013-07-13 02:55:00,66.4,65.2,30.10,ENE,65,3.1,3.1,96,0.00,,,0.04,VWS V14.01,2013-07-13 06:55:00,
2013-07-13 02:57:00,66.4,65.2,30.10,East,79,3.1,3.1,96,0.00,,,0.04,VWS V14.01,2013-07-13 06:57:00,
2013-07-13 03:00:00,66.2,65.0,30.10,East,79,2.2,3.1,96,0.00,,,0.04,VWS V14.01,2013-07-13 07:00:00,
2013-07-13 03:02:00,66.4,65.2,30.10,East,79,2.2,3.1,96,0.00,,,0.04,VWS V14.01,2013-07-13 07:02:00,
2013-07-13 03:05:00,66.4,65.2,30.10,East,79,3.1,3.6,96,0.00,,,0.04,VWS V14.01,2013-07-13 07:05:00,
2013-07-13 03:07:00,66.4,65.2,30.10,East,79,2.2,3.1,96,0.00,,,0.04,VWS V14.01,2013-07-13 07:07:00,
2013-07-13 03:10:00,66.2,65.0,30.10,East,79,0.0,3.1,96,0.00,,,0.04,VWS V14.01,2013-07-13 07:10:00,
2013-07-13 03:12:00,66.2,65.0,30.10,East,79,0.0,3.1,96,0.00,,,0.04,VWS V14.01,2013-07-13 07:12:00,
2013-07-13 03:15:00,66.2,65.0,30.10,East,79,0.0,3.1,96,0.00,,,0.04,VWS V14.01,2013-07-13 07:15:00,
2013-07-13 03:17:00,66.2,65.0,30.10,East,79,0.0,0.0,96,0.00,,,0.04,VWS V14.01,2013-07-13 07:17:00,
2013-07-13 03:20:00,66.2,65.0,30.10,East,79,0.0,2.7,96,0.00,,,0.04,VWS V14.01,2013-07-13 07:20:00,
2013-07-13 03:22:00,66.0,65.2,30.10,East,79,2.2,3.1,97,0.00,,,0.04,VWS V14.01,2013-07-13 07:22:00,
2013-07-13 03:25:00,66.0,65.2,30.10,NNE,32,2.7,4.0,97,0.00,,,0.04,VWS V14.01,2013-07-13 07:25:00,
2013-07-13 03:27:00,66.0,65.2,30.10,NNE,32,0.0,3.1,97,0.00,,,0.04,VWS V14.01,2013-07-13 07:27:00,
2013-07-13 03:30:00,66.0,65.2,30.10,NNE,32,0.0,3.1,97,0.00,,,0.04,VWS V14.01,2013-07-13 07:30:00,
2013-07-13 03:32:00,66.0,65.2,30.10,NNE,32,0.0,0.0,97,0.00,,,0.04,VWS V14.01,2013-07-13 07:32:00,
2013-07-13 03:35:00,66.0,65.2,30.10,NNE,32,0.0,0.0,97,0.00,,,0.04,VWS V14.01,2013-07-13 07:35:00,
2013-07-13 03:37:00,66.0,65.2,30.10,NNE,32,0.0,0.0,97,0.00,,,0.04,VWS V14.01,2013-07-13 07:37:00,
2013-07-13 03:40:00,66.0,65.2,30.10,NE,48,2.2,3.1,97,0.00,,,0.04,VWS V14.01,2013-07-13 07:40:00,
2013-07-13 03:42:00,66.2,65.3,30.10,NE,48,0.0,2.7,97,0.00,,,0.04,VWS V14.01,2013-07-13 07:42:00,
2013-07-13 03:45:00,66.2,65.3,30.10,NE,48,0.0,2.7,97,0.00,,,0.04,VWS V14.01,2013-07-13 07:45:00,
2013-07-13 03:47:00,66.2,65.3,30.10,NE,48,2.2,3.1,97,0.00,,,0.04,VWS V14.01,2013-07-13 07:47:00,
2013-07-13 03:50:00,66.2,65.3,30.10,NE,49,2.7,3.1,97,0.00,,,0.04,VWS V14.01,2013-07-13 07:50:00,
2013-07-13 03:52:00,66.2,65.3,30.10,NE,49,0.0,2.7,97,0.00,,,0.04,VWS V14.01,2013-07-13 07:52:00,
2013-07-13 03:55:00,66.2,65.3,30.10,NE,49,0.0,3.1,97,0.00,,,0.04,VWS V14.01,2013-07-13 07:55:00,
2013-07-13 03:57:00,66.2,65.3,30.10,NE,49,0.0,2.2,97,0.00,,,0.04,VWS V14.01,2013-07-13 07:57:00,
2013-07-13 04:00:00,66.2,65.3,30.10,NE,49,0.0,2.2,97,0.00,,,0.04,VWS V14.01,2013-07-13 08:00:00,
2013-07-13 04:02:00,66.4,65.5,30.10,NE,49,0.0,0.0,97,0.00,,,0.04,VWS V14.01,2013-07-13 08:02:00,
2013-07-13 04:05:00,66.2,65.3,30.10,NE,49,0.0,2.7,97,0.00,,,0.04,VWS V14.01,2013-07-13 08:05:00,
2013-07-13 04:07:00,66.2,65.3,30.10,NE,49,2.2,2.2,97,0.00,,,0.04,VWS V14.01,2013-07-13 08:07:00,
2013-07-13 04:10:00,66.4,65.5,30.10,NE,49,0.0,2.7,97,0.00,,,0.04,VWS V14.01,2013-07-13 08:10:00,
2013-07-13 04:12:00,66.2,65.3,30.13,NE,45,0.0,3.1,97,0.00,,,0.04,VWS V14.01,2013-07-13 08:12:00,
2013-07-13 04:15:00,66.2,65.3,30.13,NE,49,0.0,3.1,97,0.00,,,0.04,VWS V14.01,2013-07-13 08:15:00,
2013-07-13 04:17:00,66.2,65.3,30.13,NE,49,0.0,2.2,97,0.00,,,0.04,VWS V14.01,2013-07-13 08:17:00,
2013-07-13 04:20:00,66.2,65.3,30.13,NE,49,0.0,2.2,97,0.00,,,0.04,VWS V14.01,2013-07-13 08:20:00,
2013-07-13 04:22:00,66.2,65.3,30.13,NE,49,0.0,0.0,97,0.00,,,0.04,VWS V14.01,2013-07-13 08:22:00,
2013-07-13 04:25:00,66.2,65.3,30.13,NE,49,0.0,0.0,97,0.00,,,0.04,VWS V14.01,2013-07-13 08:25:00,
2013-07-13 04:27:00,66.2,65.3,30.13,NE,49,0.0,0.0,97,0.00,,,0.04,VWS V14.01,2013-07-13 08:27:00,
2013-07-13 04:30:00,66.2,65.3,30.13,NE,49,0.0,0.0,97,0.00,,,0.04,VWS V14.01,2013-07-13 08:30:00,
2013-07-13 04:32:00,66.2,65.3,30.13,NE,49,3.1,3.1,97,0.00,,,0.04,VWS V14.01,2013-07-13 08:32:00,
2013-07-13 04:35:00,66.2,65.3,30.13,NE,49,0.0,3.1,97,0.00,,,0.04,VWS V14.01,2013-07-13 08:35:00,
2013-07-13 04:37:00,66.2,65.3,30.13,NE,49,0.0,0.0,97,0.00,,,0.04,VWS V14.01,2013-07-13 08:37:00,
2013-07-13 04:40:00,66.0,65.2,30.13,NE,49,0.0,0.0,97,0.00,,,0.04,VWS V14.01,2013-07-13 08:40:00,
2013-07-13 04:42:00,66.2,65.3,30.13,NE,49,2.2,2.2,97,0.00,,,0.04,VWS V14.01,2013-07-13 08:42:00,
2013-07-13 04:45:00,66.2,65.3,30.13,NE,49,0.0,2.2,97,0.00,,,0.04,VWS V14.01,2013-07-13 08:45:00,
2013-07-13 04:47:00,66.2,65.3,30.13,NE,49,0.0,0.0,97,0.00,,,0.04,VWS V14.01,2013-07-13 08:47:00,
2013-07-13 04:50:00,66.2,65.3,30.13,NE,49,0.0,0.0,97,0.00,,,0.04,VWS V14.01,2013-07-13 08:50:00,
2013-07-13 04:52:00,66.2,65.3,30.13,NE,49,0.0,0.0,97,0.00,,,0.04,VWS V14.01,2013-07-13 08:52:00,
2013-07-13 04:55:00,66.0,65.2,30.13,NE,49,0.0,0.0,97,0.00,,,0.04,VWS V14.01,2013-07-13 08:55:00,
2013-07-13 04:57:00,66.2,65.3,30.13,NE,49,0.0,0.0,97,0.00,,,0.04,VWS V14.01,2013-07-13 08:57:00,
2013-07-13 05:00:00,66.2,65.3,30.13,NE,49,0.0,0.0,97,0.00,,,0.04,VWS V14.01,2013-07-13 09:00:00,
2013-07-13 05:02:00,66.0,65.2,30.13,NE,49,0.0,0.0,97,0.00,,,0.04,VWS V14.01,2013-07-13 09:02:00,
2013-07-13 05:05:00,66.0,65.2,30.13,NE,49,0.0,0.0,97,0.00,,,0.04,VWS V14.01,2013-07-13 09:05:00,
2013-07-13 05:07:00,66.0,65.2,30.13,NE,49,0.0,0.0,97,0.00,,,0.04,VWS V14.01,2013-07-13 09:07:00,
2013-07-13 05:10:00,66.0,65.2,30.13,NE,49,0.0,0.0,97,0.00,,,0.04,VWS V14.01,2013-07-13 09:10:00,
2013-07-13 05:12:00,66.0,65.2,30.13,NE,49,0.0,0.0,97,0.00,,,0.04,VWS V14.01,2013-07-13 09:12:00,
2013-07-13 05:15:00,66.0,65.2,30.13,NE,49,0.0,0.0,97,0.00,,,0.04,VWS V14.01,2013-07-13 09:15:00,
2013-07-13 05:17:00,66.0,65.2,30.13,NE,49,0.0,0.0,97,0.00,,,0.04,VWS V14.01,2013-07-13 09:17:00,
2013-07-13 05:20:00,66.0,65.2,30.13,NE,49,0.0,0.0,97,0.00,,,0.04,VWS V14.01,2013-07-13 09:20:00,
2013-07-13 05:22:00,66.0,65.2,30.13,NE,49,0.0,0.0,97,0.00,,,0.04,VWS V14.01,2013-07-13 09:22:00,
2013-07-13 05:25:00,66.0,65.2,30.13,NE,49,0.0,0.0,97,0.00,,,0.04,VWS V14.01,2013-07-13 09:25:00,
2013-07-13 05:27:00,66.0,65.2,30.13,NE,49,0.0,0.0,97,0.00,,,0.04,VWS V14.01,2013-07-13 09:27:00,
2013-07-13 05:30:00,66.0,65.2,30.13,NE,49,0.0,0.0,97,0.00,,,0.04,VWS V14.01,2013-07-13 09:30:00,
2013-07-13 05:32:00,66.0,65.2,30.13,NE,49,0.0,0.0,97,0.00,,,0.04,VWS V14.01,2013-07-13 09:32:00,
2013-07-13 05:35:00,66.0,65.2,30.13,NE,49,0.0,0.0,97,0.00,,,0.04,VWS V14.01,2013-07-13 09:35:00,
2013-07-13 05:37:00,66.0,65.2,30.13,NE,49,0.0,0.0,97,0.00,,,0.04,VWS V14.01,2013-07-13 09:37:00,
2013-07-13 05:40:00,66.2,65.3,30.13,NE,49,0.0,0.0,97,0.00,,,0.04,VWS V14.01,2013-07-13 09:40:00,
2013-07-13 05:42:00,66.2,65.3,30.16,NE,49,0.0,0.0,97,0.00,,,0.04,VWS V14.01,2013-07-13 09:42:00,
2013-07-13 05:45:00,66.2,65.3,30.16,NE,49,0.0,0.0,97,0.00,,,0.04,VWS V14.01,2013-07-13 09:45:00,
2013-07-13 05:47:00,66.2,65.3,30.16,NE,49,0.0,0.0,97,0.00,,,0.04,VWS V14.01,2013-07-13 09:47:00,
2013-07-13 05:50:00,66.2,65.3,30.16,NE,49,0.0,0.0,97,0.00,,,0.04,VWS V14.01,2013-07-13 09:50:00,
2013-07-13 05:52:00,66.2,65.3,30.16,NE,49,0.0,0.0,97,0.00,,,0.04,VWS V14.01,2013-07-13 09:52:00,
2013-07-13 05:55:00,66.2,65.3,30.16,NE,49,0.0,0.0,97,0.00,,,0.04,VWS V14.01,2013-07-13 09:55:00,
2013-07-13 05:57:00,66.2,65.3,30.16,NE,49,0.0,0.0,97,0.00,,,0.04,VWS V14.01,2013-07-13 09:57:00,
2013-07-13 06:00:00,66.2,65.3,30.16,NE,49,0.0,0.0,97,0.00,,,0.04,VWS V14.01,2013-07-13 10:00:00,
2013-07-13 06:02:00,66.2,65.3,30.16,NE,49,0.0,0.0,97,0.00,,,0.04,VWS V14.01,2013-07-13 10:02:00,
2013-07-13 06:05:00,66.2,65.3,30.16,NE,49,0.0,0.0,97,0.00,,,0.04,VWS V14.01,2013-07-13 10:05:00,
2013-07-13 06:07:00,66.2,65.3,30.16,NE,49,0.0,0.0,97,0.00,,,0.04,VWS V14.01,2013-07-13 10:07:00,
2013-07-13 06:10:00,66.2,65.3,30.16,NE,49,0.0,0.0,97,0.00,,,0.04,VWS V14.01,2013-07-13 10:10:00,
2013-07-13 06:12:00,66.4,65.5,30.16,NE,49,0.0,2.2,97,0.00,,,0.04,VWS V14.01,2013-07-13 10:12:00,
2013-07-13 06:15:00,66.4,65.5,30.16,NE,49,0.0,2.2,97,0.00,,,0.04,VWS V14.01,2013-07-13 10:15:00,
2013-07-13 06:17:00,66.4,65.5,30.16,NE,49,0.0,0.0,97,0.00,,,0.04,VWS V14.01,2013-07-13 10:17:00,
2013-07-13 06:20:00,66.4,65.5,30.16,NE,49,0.0,0.0,97,0.00,,,0.04,VWS V14.01,2013-07-13 10:20:00,
2013-07-13 06:22:00,66.4,65.5,30.16,NE,49,0.0,0.0,97,0.00,,,0.04,VWS V14.01,2013-07-13 10:22:00,
2013-07-13 06:25:00,66.4,65.5,30.16,NE,49,0.0,0.0,97,0.00,,,0.04,VWS V14.01,2013-07-13 10:25:00,
2013-07-13 06:27:00,66.4,65.5,30.16,NE,49,0.0,0.0,97,0.00,,,0.04,VWS V14.01,2013-07-13 10:27:00,
2013-07-13 06:30:00,66.4,65.5,30.16,NE,49,0.0,0.0,97,0.00,,,0.04,VWS V14.01,2013-07-13 10:30:00,
2013-07-13 06:32:00,66.4,65.5,30.16,NE,49,0.0,0.0,97,0.00,,,0.04,VWS V14.01,2013-07-13 10:32:00,
2013-07-13 06:35:00,66.4,65.5,30.16,NE,49,0.0,0.0,97,0.00,,,0.04,VWS V14.01,2013-07-13 10:35:00,
2013-07-13 06:37:00,66.4,65.5,30.16,NE,49,0.0,0.0,97,0.00,,,0.04,VWS V14.01,2013-07-13 10:37:00,
2013-07-13 06:40:00,66.4,65.5,30.16,NE,49,0.0,2.7,97,0.00,,,0.04,VWS V14.01,2013-07-13 10:40:00,
2013-07-13 06:42:00,66.6,65.7,30.16,NE,49,0.0,2.2,97,0.00,,,0.04,VWS V14.01,2013-07-13 10:42:00,
2013-07-13 06:45:00,66.6,65.7,30.16,NE,49,0.0,2.2,97,0.00,,,0.04,VWS V14.01,2013-07-13 10:45:00,
2013-07-13 06:47:00,66.6,65.7,30.16,NE,49,0.0,0.0,97,0.00,,,0.04,VWS V14.01,2013-07-13 10:47:00,
2013-07-13 06:50:00,66.6,65.7,30.16,NE,49,0.0,0.0,97,0.00,,,0.04,VWS V14.01,2013-07-13 10:50:00,
2013-07-13 06:52:00,66.6,65.7,30.16,NE,49,0.0,0.0,97,0.00,,,0.04,VWS V14.01,2013-07-13 10:52:00,
2013-07-13 06:55:00,66.6,65.7,30.16,NE,49,0.0,0.0,97,0.00,,,0.04,VWS V14.01,2013-07-13 10:55:00,
2013-07-13 06:57:00,66.6,65.7,30.16,NE,49,0.0,0.0,97,0.00,,,0.04,VWS V14.01,2013-07-13 10:57:00,
2013-07-13 07:00:00,66.6,65.7,30.16,NE,49,0.0,0.0,97,0.00,,,0.04,VWS V14.01,2013-07-13 11:00:00,
2013-07-13 07:02:00,66.6,65.7,30.16,NE,49,0.0,0.0,97,0.00,,,0.04,VWS V14.01,2013-07-13 11:02:00,
2013-07-13 07:05:00,66.6,65.7,30.16,NE,49,0.0,0.0,97,0.00,,,0.04,VWS V14.01,2013-07-13 11:05:00,
2013-07-13 07:07:00,66.7,65.9,30.16,NE,49,2.2,2.2,97,0.00,,,0.04,VWS V14.01,2013-07-13 11:07:00,
2013-07-13 07:10:00,66.7,65.9,30.16,NE,49,0.0,2.7,97,0.00,,,0.04,VWS V14.01,2013-07-13 11:10:00,
2013-07-13 07:12:00,66.7,65.9,30.16,NE,49,0.0,0.0,97,0.00,,,0.04,VWS V14.01,2013-07-13 11:12:00,
2013-07-13 07:15:00,66.9,66.0,30.16,NE,49,0.0,0.0,97,0.00,,,0.04,VWS V14.01,2013-07-13 11:15:00,
2013-07-13 07:17:00,66.9,66.0,30.16,NE,49,0.0,0.0,97,0.00,,,0.04,VWS V14.01,2013-07-13 11:17:00,
2013-07-13 07:20:00,66.9,66.0,30.16,NE,49,0.0,0.0,97,0.00,,,0.04,VWS V14.01,2013-07-13 11:20:00,
2013-07-13 07:22:00,67.1,66.2,30.16,NE,49,0.0,0.0,97,0.00,,,0.04,VWS V14.01,2013-07-13 11:22:00,
2013-07-13 07:25:00,67.1,66.2,30.16,NE,49,0.0,0.0,97,0.00,,,0.04,VWS V14.01,2013-07-13 11:25:00,
2013-07-13 07:28:00,67.1,66.2,30.16,NE,49,0.0,0.0,97,0.00,,,0.04,VWS V14.01,2013-07-13 11:28:00,
2013-07-13 07:30:00,67.1,66.2,30.16,NE,49,0.0,0.0,97,0.00,,,0.04,VWS V14.01,2013-07-13 11:30:00,
2013-07-13 07:33:00,67.3,66.4,30.16,NE,49,0.0,0.0,97,0.00,,,0.04,VWS V14.01,2013-07-13 11:33:00,
2013-07-13 07:35:00,67.3,66.4,30.16,NE,49,0.0,0.0,97,0.00,,,0.04,VWS V14.01,2013-07-13 11:35:00,
2013-07-13 07:38:00,67.5,66.6,30.16,NE,49,0.0,0.0,97,0.00,,,0.04,VWS V14.01,2013-07-13 11:38:00,
2013-07-13 07:40:00,67.5,66.6,30.16,NE,49,0.0,0.0,97,0.00,,,0.04,VWS V14.01,2013-07-13 11:40:00,
2013-07-13 07:43:00,67.6,66.8,30.19,NE,49,0.0,0.0,97,0.00,,,0.04,VWS V14.01,2013-07-13 11:43:00,
2013-07-13 07:45:00,67.6,66.8,30.19,NE,49,0.0,0.0,97,0.00,,,0.04,VWS V14.01,2013-07-13 11:45:00,
2013-07-13 07:48:00,67.5,66.6,30.19,NE,49,0.0,0.0,97,0.00,,,0.04,VWS V14.01,2013-07-13 11:48:00,
2013-07-13 07:50:00,67.5,66.6,30.19,NE,49,0.0,0.0,97,0.00,,,0.04,VWS V14.01,2013-07-13 11:50:00,
2013-07-13 07:53:00,67.5,66.9,30.19,NE,49,0.0,0.0,98,0.00,,,0.04,VWS V14.01,2013-07-13 11:53:00,
2013-07-13 07:55:00,67.5,66.9,30.19,NE,49,0.0,0.0,98,0.00,,,0.04,VWS V14.01,2013-07-13 11:55:00,
2013-07-13 07:58:00,67.6,67.1,30.19,NE,49,0.0,0.0,98,0.00,,,0.04,VWS V14.01,2013-07-13 11:58:00,
2013-07-13 08:00:00,67.6,66.8,30.19,NE,49,0.0,0.0,97,0.00,,,0.04,VWS V14.01,2013-07-13 12:00:00,
2013-07-13 08:03:00,67.6,67.1,30.19,NE,49,0.0,0.0,98,0.00,,,0.04,VWS V14.01,2013-07-13 12:03:00,
2013-07-13 08:05:00,67.6,67.1,30.19,NE,49,0.0,0.0,98,0.00,,,0.04,VWS V14.01,2013-07-13 12:05:00,
2013-07-13 08:08:00,67.6,67.1,30.19,NE,49,0.0,0.0,98,0.00,,,0.04,VWS V14.01,2013-07-13 12:08:00,
2013-07-13 08:10:00,67.6,67.1,30.19,NE,49,0.0,0.0,98,0.00,,,0.04,VWS V14.01,2013-07-13 12:10:00,
2013-07-13 08:13:00,67.8,67.2,30.19,NE,49,0.0,0.0,98,0.00,,,0.04,VWS V14.01,2013-07-13 12:13:00,
2013-07-13 08:15:00,67.8,67.2,30.19,NE,49,0.0,0.0,98,0.00,,,0.04,VWS V14.01,2013-07-13 12:15:00,
2013-07-13 08:18:00,67.8,67.2,30.19,NE,49,0.0,0.0,98,0.00,,,0.04,VWS V14.01,2013-07-13 12:18:00,
2013-07-13 08:20:00,67.8,67.2,30.19,NE,49,0.0,2.2,98,0.00,,,0.04,VWS V14.01,2013-07-13 12:20:00,
2013-07-13 08:23:00,67.8,67.2,30.19,NE,49,0.0,0.0,98,0.00,,,0.04,VWS V14.01,2013-07-13 12:23:00,
2013-07-13 08:25:00,67.8,67.2,30.19,NE,49,0.0,0.0,98,0.00,,,0.04,VWS V14.01,2013-07-13 12:25:00,
2013-07-13 08:28:00,67.6,67.1,30.19,NE,49,0.0,0.0,98,0.00,,,0.04,VWS V14.01,2013-07-13 12:28:00,
2013-07-13 08:30:00,67.8,67.2,30.19,NE,49,0.0,0.0,98,0.00,,,0.04,VWS V14.01,2013-07-13 12:30:00,
2013-07-13 08:33:00,67.8,67.2,30.19,NE,49,0.0,0.0,98,0.00,,,0.04,VWS V14.01,2013-07-13 12:33:00,
2013-07-13 08:35:00,67.8,67.2,30.19,NE,49,0.0,0.0,98,0.00,,,0.04,VWS V14.01,2013-07-13 12:35:00,
2013-07-13 08:38:00,67.8,67.2,30.19,NE,49,0.0,0.0,98,0.00,,,0.04,VWS V14.01,2013-07-13 12:38:00,
2013-07-13 08:40:00,67.8,67.2,30.19,NE,49,0.0,0.0,98,0.00,,,0.04,VWS V14.01,2013-07-13 12:40:00,
2013-07-13 08:43:00,67.8,67.2,30.22,NE,49,0.0,0.0,98,0.00,,,0.04,VWS V14.01,2013-07-13 12:43:00,
2013-07-13 08:45:00,67.8,67.2,30.22,NE,49,0.0,0.0,98,0.00,,,0.04,VWS V14.01,2013-07-13 12:45:00,
2013-07-13 08:48:00,68.0,67.1,30.22,NE,49,0.0,0.0,97,0.00,,,0.04,VWS V14.01,2013-07-13 12:48:00,
2013-07-13 08:50:00,68.0,67.1,30.22,NE,49,0.0,0.0,97,0.00,,,0.04,VWS V14.01,2013-07-13 12:50:00,
2013-07-13 08:53:00,67.8,67.2,30.22,NE,49,0.0,0.0,98,0.00,,,0.04,VWS V14.01,2013-07-13 12:53:00,
2013-07-13 08:55:00,67.8,67.2,30.22,NE,49,0.0,0.0,98,0.00,,,0.04,VWS V14.01,2013-07-13 12:55:00,
2013-07-13 08:58:00,67.8,67.2,30.22,NE,49,0.0,0.0,98,0.00,,,0.04,VWS V14.01,2013-07-13 12:58:00,
2013-07-13 09:00:00,67.8,67.2,30.22,NE,49,0.0,0.0,98,0.00,,,0.04,VWS V14.01,2013-07-13 13:00:00,
2013-07-13 09:03:00,67.8,67.2,30.22,NE,49,0.0,0.0,98,0.00,,,0.04,VWS V14.01,2013-07-13 13:03:00,
2013-07-13 09:05:00,67.8,67.2,30.22,NE,49,0.0,0.0,98,0.00,,,0.04,VWS V14.01,2013-07-13 13:05:00,
2013-07-13 09:08:00,67.8,67.2,30.22,NE,49,0.0,0.0,98,0.00,,,0.04,VWS V14.01,2013-07-13 13:08:00,
2013-07-13 09:10:00,67.8,67.2,30.22,NE,49,0.0,0.0,98,0.00,,,0.04,VWS V14.01,2013-07-13 13:10:00,
2013-07-13 09:13:00,67.8,67.2,30.22,NE,49,0.0,0.0,98,0.00,,,0.04,VWS V14.01,2013-07-13 13:13:00,
2013-07-13 09:15:00,67.8,67.2,30.22,NE,49,0.0,0.0,98,0.00,,,0.04,VWS V14.01,2013-07-13 13:15:00,
2013-07-13 09:18:00,68.0,67.1,30.22,NE,49,0.0,0.0,97,0.00,,,0.04,VWS V14.01,2013-07-13 13:18:00,
2013-07-13 09:20:00,68.0,67.1,30.22,NE,49,0.0,0.0,97,0.00,,,0.04,VWS V14.01,2013-07-13 13:20:00,
2013-07-13 09:23:00,68.0,67.1,30.22,NE,49,0.0,0.0,97,0.00,,,0.04,VWS V14.01,2013-07-13 13:23:00,
2013-07-13 09:25:00,68.0,67.1,30.22,NE,49,0.0,0.0,97,0.00,,,0.04,VWS V14.01,2013-07-13 13:25:00,
2013-07-13 09:28:00,68.0,67.1,30.22,NE,49,0.0,0.0,97,0.00,,,0.04,VWS V14.01,2013-07-13 13:28:00,
2013-07-13 09:30:00,68.0,67.1,30.22,NE,49,0.0,0.0,97,0.00,,,0.04,VWS V14.01,2013-07-13 13:30:00,
2013-07-13 09:33:00,68.0,67.1,30.22,NE,49,0.0,0.0,97,0.00,,,0.04,VWS V14.01,2013-07-13 13:33:00,
2013-07-13 09:35:00,68.0,67.1,30.22,NE,49,0.0,0.0,97,0.00,,,0.04,VWS V14.01,2013-07-13 13:35:00,
2013-07-13 09:38:00,68.0,67.1,30.22,NE,49,0.0,0.0,97,0.00,,,0.04,VWS V14.01,2013-07-13 13:38:00,
2013-07-13 09:40:00,68.0,67.1,30.22,NE,49,0.0,0.0,97,0.00,,,0.04,VWS V14.01,2013-07-13 13:40:00,
2013-07-13 09:43:00,68.2,67.3,30.22,NE,49,0.0,0.0,97,0.00,,,0.04,VWS V14.01,2013-07-13 13:43:00,
2013-07-13 09:45:00,68.2,67.3,30.22,NE,49,0.0,0.0,97,0.00,,,0.04,VWS V14.01,2013-07-13 13:45:00,
2013-07-13 09:48:00,68.2,67.3,30.22,NE,49,0.0,0.0,97,0.00,,,0.04,VWS V14.01,2013-07-13 13:48:00,
2013-07-13 09:50:00,68.2,67.3,30.22,NE,49,0.0,0.0,97,0.00,,,0.04,VWS V14.01,2013-07-13 13:50:00,
2013-07-13 09:53:00,68.4,67.5,30.22,NE,49,0.0,0.0,97,0.00,,,0.04,VWS V14.01,2013-07-13 13:53:00,
2013-07-13 09:55:00,68.4,67.5,30.22,NE,49,0.0,0.0,97,0.00,,,0.04,VWS V14.01,2013-07-13 13:55:00,
2013-07-13 09:58:00,68.5,67.7,30.22,NE,49,0.0,0.0,97,0.00,,,0.04,VWS V14.01,2013-07-13 13:58:00,
2013-07-13 10:00:00,68.7,67.8,30.22,NE,49,0.0,0.0,97,0.00,,,0.04,VWS V14.01,2013-07-13 14:00:00,
2013-07-13 10:03:00,68.9,68.0,30.22,NE,49,0.0,0.0,97,0.00,,,0.04,VWS V14.01,2013-07-13 14:03:00,
2013-07-13 10:05:00,68.9,68.0,30.22,NE,49,0.0,0.0,97,0.00,,,0.04,VWS V14.01,2013-07-13 14:05:00,
2013-07-13 10:08:00,69.1,68.2,30.22,NE,49,0.0,0.0,97,0.00,,,0.04,VWS V14.01,2013-07-13 14:08:00,
2013-07-13 10:10:00,69.1,68.2,30.22,NE,49,0.0,0.0,97,0.00,,,0.04,VWS V14.01,2013-07-13 14:10:00,
2013-07-13 10:13:00,69.1,68.2,30.22,NE,49,0.0,0.0,97,0.00,,,0.04,VWS V14.01,2013-07-13 14:13:00,
2013-07-13 10:15:00,68.9,68.0,30.22,NE,49,0.0,0.0,97,0.00,,,0.04,VWS V14.01,2013-07-13 14:15:00,
2013-07-13 10:19:00,69.1,68.2,30.22,NE,49,0.0,0.0,97,0.00,,,0.04,VWS V14.01,2013-07-13 14:19:00,
2013-07-13 10:20:00,69.1,68.2,30.22,NE,49,0.0,0.0,97,0.00,,,0.04,VWS V14.01,2013-07-13 14:20:00,
2013-07-13 10:24:00,69.1,68.2,30.22,NE,49,0.0,0.0,97,0.00,,,0.04,VWS V14.01,2013-07-13 14:24:00,
2013-07-13 10:25:00,69.1,68.2,30.22,NE,49,0.0,0.0,97,0.00,,,0.04,VWS V14.01,2013-07-13 14:25:00,
2013-07-13 10:29:00,69.1,68.2,30.22,NE,49,0.0,0.0,97,0.00,,,0.04,VWS V14.01,2013-07-13 14:29:00,
2013-07-13 10:30:00,69.1,68.2,30.22,NE,49,0.0,0.0,97,0.00,,,0.04,VWS V14.01,2013-07-13 14:30:00,
2013-07-13 10:34:00,69.1,68.2,30.22,NE,49,0.0,0.0,97,0.00,,,0.04,VWS V14.01,2013-07-13 14:34:00,
2013-07-13 10:35:00,69.1,68.2,30.22,NE,49,0.0,0.0,97,0.00,,,0.04,VWS V14.01,2013-07-13 14:35:00,
2013-07-13 10:39:00,69.3,68.4,30.22,NE,49,0.0,0.0,97,0.00,,,0.04,VWS V14.01,2013-07-13 14:39:00,
2013-07-13 10:40:00,69.3,68.4,30.22,NE,49,0.0,0.0,97,0.00,,,0.04,VWS V14.01,2013-07-13 14:40:00,
2013-07-13 10:44:00,69.3,68.4,30.22,NE,49,0.0,0.0,97,0.00,,,0.04,VWS V14.01,2013-07-13 14:44:00,
2013-07-13 10:45:00,69.3,68.4,30.22,NE,49,0.0,0.0,97,0.00,,,0.04,VWS V14.01,2013-07-13 14:45:00,
2013-07-13 10:49:00,69.4,68.6,30.22,NE,49,0.0,0.0,97,0.00,,,0.04,VWS V14.01,2013-07-13 14:49:00,
2013-07-13 10:50:00,69.4,68.6,30.22,NE,49,0.0,0.0,97,0.00,,,0.04,VWS V14.01,2013-07-13 14:50:00,
2013-07-13 10:54:00,69.4,68.6,30.22,NE,49,0.0,0.0,97,0.00,,,0.04,VWS V14.01,2013-07-13 14:54:00,
2013-07-13 10:55:00,69.4,68.6,30.22,NE,49,0.0,0.0,97,0.00,,,0.04,VWS V14.01,2013-07-13 14:55:00,
2013-07-13 10:59:00,69.8,68.9,30.22,NE,49,0.0,0.0,97,0.00,,,0.04,VWS V14.01,2013-07-13 14:59:00,
2013-07-13 11:00:00,69.8,68.9,30.22,NE,49,0.0,0.0,97,0.00,,,0.04,VWS V14.01,2013-07-13 15:00:00,
2013-07-13 11:04:00,69.8,68.9,30.22,NE,49,0.0,0.0,97,0.00,,,0.04,VWS V14.01,2013-07-13 15:04:00,
2013-07-13 11:05:00,70.0,69.1,30.22,NE,49,0.0,0.0,97,0.00,,,0.04,VWS V14.01,2013-07-13 15:05:00,
2013-07-13 11:09:00,69.8,68.9,30.22,NE,49,0.0,0.0,97,0.00,,,0.04,VWS V14.01,2013-07-13 15:09:00,
2013-07-13 11:10:00,69.8,68.9,30.22,NE,49,0.0,0.0,97,0.00,,,0.04,VWS V14.01,2013-07-13 15:10:00,
2013-07-13 11:14:00,69.8,68.9,30.22,NE,49,0.0,0.0,97,0.00,,,0.04,VWS V14.01,2013-07-13 15:14:00,
2013-07-13 11:15:00,69.8,68.9,30.22,NE,49,0.0,0.0,97,0.00,,,0.04,VWS V14.01,2013-07-13 15:15:00,
2013-07-13 11:19:00,69.8,68.6,30.22,NE,49,0.0,0.0,96,0.00,,,0.04,VWS V14.01,2013-07-13 15:19:00,
2013-07-13 11:20:00,70.0,68.8,30.22,NE,49,0.0,0.0,96,0.00,,,0.04,VWS V14.01,2013-07-13 15:20:00,
2013-07-13 11:24:00,70.0,68.8,30.22,NE,49,0.0,0.0,96,0.00,,,0.04,VWS V14.01,2013-07-13 15:24:00,
2013-07-13 11:25:00,70.0,68.8,30.22,NE,49,0.0,0.0,96,0.00,,,0.04,VWS V14.01,2013-07-13 15:25:00,
2013-07-13 11:29:00,69.8,68.6,30.22,NE,49,0.0,2.2,96,0.00,,,0.04,VWS V14.01,2013-07-13 15:29:00,
2013-07-13 11:30:00,69.8,68.6,30.22,NE,49,0.0,2.2,96,0.00,,,0.04,VWS V14.01,2013-07-13 15:30:00,
2013-07-13 11:34:00,69.8,68.6,30.22,NE,49,0.0,0.0,96,0.00,,,0.04,VWS V14.01,2013-07-13 15:34:00,
2013-07-13 11:35:00,69.8,68.6,30.22,NE,49,0.0,0.0,96,0.00,,,0.04,VWS V14.01,2013-07-13 15:35:00,
2013-07-13 11:39:00,69.8,68.6,30.22,NE,49,0.0,0.0,96,0.00,,,0.04,VWS V14.01,2013-07-13 15:39:00,
2013-07-13 11:40:00,69.8,68.6,30.22,NE,49,0.0,0.0,96,0.00,,,0.04,VWS V14.01,2013-07-13 15:40:00,
2013-07-13 11:44:00,69.8,68.6,30.22,NE,49,0.0,0.0,96,0.00,,,0.04,VWS V14.01,2013-07-13 15:44:00,
2013-07-13 11:45:00,69.8,68.6,30.22,NE,49,0.0,0.0,96,0.00,,,0.04,VWS V14.01,2013-07-13 15:45:00,
2013-07-13 11:49:00,70.0,68.8,30.22,NE,49,0.0,0.0,96,0.00,,,0.04,VWS V14.01,2013-07-13 15:49:00,
2013-07-13 11:50:00,70.0,68.8,30.22,NE,49,0.0,0.0,96,0.00,,,0.04,VWS V14.01,2013-07-13 15:50:00,
2013-07-13 11:54:00,70.0,68.8,30.22,NE,49,0.0,0.0,96,0.00,,,0.04,VWS V14.01,2013-07-13 15:54:00,
2013-07-13 11:55:00,70.0,68.8,30.22,NE,49,0.0,0.0,96,0.00,,,0.04,VWS V14.01,2013-07-13 15:55:00,
2013-07-13 11:59:00,70.0,68.8,30.22,NE,49,0.0,0.0,96,0.00,,,0.04,VWS V14.01,2013-07-13 15:59:00,
2013-07-13 12:00:00,70.0,68.8,30.22,NE,49,0.0,0.0,96,0.00,,,0.04,VWS V14.01,2013-07-13 16:00:00,
2013-07-13 12:04:00,70.2,69.0,30.22,NE,49,0.0,0.0,96,0.00,,,0.04,VWS V14.01,2013-07-13 16:04:00,
2013-07-13 12:05:00,70.2,69.0,30.22,NE,49,0.0,0.0,96,0.00,,,0.04,VWS V14.01,2013-07-13 16:05:00,
2013-07-13 12:09:00,70.3,69.2,30.22,NE,49,0.0,0.0,96,0.00,,,0.04,VWS V14.01,2013-07-13 16:09:00,
2013-07-13 12:10:00,70.3,69.2,30.22,NE,49,0.0,0.0,96,0.00,,,0.04,VWS V14.01,2013-07-13 16:10:00,
2013-07-13 12:14:00,70.3,69.2,30.25,NE,49,0.0,0.0,96,0.00,,,0.04,VWS V14.01,2013-07-13 16:14:00,
2013-07-13 12:15:00,70.3,69.2,30.25,NE,49,0.0,0.0,96,0.00,,,0.04,VWS V14.01,2013-07-13 16:15:00,
2013-07-13 12:19:00,70.5,69.3,30.25,NE,49,0.0,0.0,96,0.00,,,0.04,VWS V14.01,2013-07-13 16:19:00,
2013-07-13 12:20:00,70.5,69.3,30.25,NE,49,0.0,0.0,96,0.00,,,0.04,VWS V14.01,2013-07-13 16:20:00,
2013-07-13 12:24:00,70.5,69.3,30.25,NE,49,0.0,0.0,96,0.00,,,0.04,VWS V14.01,2013-07-13 16:24:00,
2013-07-13 12:25:00,70.5,69.3,30.25,NE,49,0.0,0.0,96,0.00,,,0.04,VWS V14.01,2013-07-13 16:25:00,
2013-07-13 12:29:00,70.5,69.3,30.25,NE,49,0.0,0.0,96,0.00,,,0.04,VWS V14.01,2013-07-13 16:29:00,
2013-07-13 12:30:00,70.5,69.3,30.25,NE,49,0.0,0.0,96,0.00,,,0.04,VWS V14.01,2013-07-13 16:30:00,
2013-07-13 12:34:00,70.5,69.3,30.25,NE,49,0.0,0.0,96,0.00,,,0.04,VWS V14.01,2013-07-13 16:34:00,
2013-07-13 12:35:00,70.5,69.3,30.25,NE,49,0.0,0.0,96,0.00,,,0.04,VWS V14.01,2013-07-13 16:35:00,
2013-07-13 12:39:00,70.7,69.5,30.25,NE,49,0.0,0.0,96,0.00,,,0.04,VWS V14.01,2013-07-13 16:39:00,
2013-07-13 12:40:00,70.7,69.5,30.25,NE,49,0.0,0.0,96,0.00,,,0.04,VWS V14.01,2013-07-13 16:40:00,
2013-07-13 12:44:00,70.9,69.7,30.25,NE,49,0.0,0.0,96,0.00,,,0.04,VWS V14.01,2013-07-13 16:44:00,
2013-07-13 12:45:00,70.9,69.7,30.25,NE,49,0.0,0.0,96,0.00,,,0.04,VWS V14.01,2013-07-13 16:45:00,
2013-07-13 12:49:00,70.9,69.7,30.25,NE,49,0.0,0.0,96,0.00,,,0.04,VWS V14.01,2013-07-13 16:49:00,
2013-07-13 12:50:00,70.9,69.7,30.25,NE,49,0.0,0.0,96,0.00,,,0.04,VWS V14.01,2013-07-13 16:50:00,
2013-07-13 12:54:00,71.1,69.9,30.25,NE,49,0.0,0.0,96,0.00,,,0.04,VWS V14.01,2013-07-13 16:54:00,
2013-07-13 12:55:00,71.1,69.9,30.25,NE,49,0.0,0.0,96,0.00,,,0.04,VWS V14.01,2013-07-13 16:55:00,
2013-07-13 12:56:00,71.2,70.1,30.25,NE,49,0.0,0.0,96,0.00,,,0.04,VWS V14.01,2013-07-13 16:56:00,
2013-07-13 13:00:00,71.2,70.0,30.25,NE,49,0.0,0.0,96,0.00,,,0.04,VWS V14.01,2013-07-13 17:00:00,
2013-07-13 13:01:00,71.4,70.2,30.25,NE,49,0.0,0.0,96,0.00,,,0.04,VWS V14.01,2013-07-13 17:01:00,
2013-07-13 13:05:00,71.6,70.1,30.25,NE,49,0.0,0.0,95,0.00,,,0.04,VWS V14.01,2013-07-13 17:05:00,
2013-07-13 13:06:00,71.6,70.1,30.25,NE,49,0.0,0.0,95,0.00,,,0.04,VWS V14.01,2013-07-13 17:06:00,
2013-07-13 13:10:00,71.8,70.3,30.25,NE,49,0.0,0.0,95,0.00,,,0.04,VWS V14.01,2013-07-13 17:10:00,
2013-07-13 13:11:00,71.8,70.3,30.25,NE,49,0.0,0.0,95,0.00,,,0.04,VWS V14.01,2013-07-13 17:11:00,
2013-07-13 13:15:00,72.0,70.4,30.25,NE,49,0.0,0.0,95,0.00,,,0.04,VWS V14.01,2013-07-13 17:15:00,
2013-07-13 13:16:00,72.0,70.4,30.25,NE,49,0.0,0.0,95,0.00,,,0.04,VWS V14.01,2013-07-13 17:16:00,
2013-07-13 13:20:00,72.1,70.6,30.25,NE,49,0.0,0.0,95,0.00,,,0.04,VWS V14.01,2013-07-13 17:20:00,
2013-07-13 13:21:00,72.1,70.6,30.25,NE,49,0.0,0.0,95,0.00,,,0.04,VWS V14.01,2013-07-13 17:21:00,
2013-07-13 13:25:00,72.1,70.6,30.25,NE,49,0.0,0.0,95,0.00,,,0.04,VWS V14.01,2013-07-13 17:25:00,
2013-07-13 13:26:00,72.1,70.6,30.25,NE,49,0.0,0.0,95,0.00,,,0.04,VWS V14.01,2013-07-13 17:26:00,
2013-07-13 13:30:00,72.3,70.8,30.25,NE,49,0.0,0.0,95,0.00,,,0.04,VWS V14.01,2013-07-13 17:30:00,
2013-07-13 13:31:00,72.5,71.0,30.25,NE,49,0.0,0.0,95,0.00,,,0.04,VWS V14.01,2013-07-13 17:31:00,
2013-07-13 13:35:00,72.9,71.3,30.25,NE,49,0.0,0.0,95,0.00,,,0.04,VWS V14.01,2013-07-13 17:35:00,
2013-07-13 13:36:00,72.9,71.3,30.25,NE,49,0.0,0.0,95,0.00,,,0.04,VWS V14.01,2013-07-13 17:36:00,
2013-07-13 13:40:00,73.0,71.5,30.25,NE,49,0.0,0.0,95,0.00,,,0.04,VWS V14.01,2013-07-13 17:40:00,
2013-07-13 13:41:00,72.9,71.3,30.25,NE,49,0.0,0.0,95,0.00,,,0.04,VWS V14.01,2013-07-13 17:41:00,
2013-07-13 13:45:00,72.9,71.3,30.25,NE,49,0.0,0.0,95,0.00,,,0.04,VWS V14.01,2013-07-13 17:45:00,
2013-07-13 13:46:00,72.9,71.3,30.25,NE,49,0.0,0.0,95,0.00,,,0.04,VWS V14.01,2013-07-13 17:46:00,
2013-07-13 13:50:00,73.0,71.2,30.25,NE,49,0.0,0.0,94,0.00,,,0.04,VWS V14.01,2013-07-13 17:50:00,
2013-07-13 13:51:00,73.0,71.2,30.25,NE,49,0.0,0.0,94,0.00,,,0.04,VWS V14.01,2013-07-13 17:51:00,
2013-07-13 13:55:00,73.2,71.4,30.25,NE,49,0.0,0.0,94,0.00,,,0.04,VWS V14.01,2013-07-13 17:55:00,
2013-07-13 13:56:00,73.2,71.4,30.25,NE,49,0.0,0.0,94,0.00,,,0.04,VWS V14.01,2013-07-13 17:56:00,
2013-07-13 14:00:00,73.6,71.8,30.25,NE,49,0.0,0.0,94,0.00,,,0.04,VWS V14.01,2013-07-13 18:00:00,
2013-07-13 14:01:00,73.6,71.8,30.25,NE,49,0.0,0.0,94,0.00,,,0.04,VWS V14.01,2013-07-13 18:01:00,
2013-07-13 14:05:00,73.4,71.6,30.25,NE,49,0.0,0.0,94,0.00,,,0.04,VWS V14.01,2013-07-13 18:05:00,
2013-07-13 14:06:00,73.4,71.6,30.25,NE,49,0.0,0.0,94,0.00,,,0.04,VWS V14.01,2013-07-13 18:06:00,
2013-07-13 14:10:00,73.4,71.3,30.25,NE,49,0.0,0.0,93,0.00,,,0.04,VWS V14.01,2013-07-13 18:10:00,
2013-07-13 14:11:00,73.4,71.3,30.25,NE,49,0.0,0.0,93,0.00,,,0.04,VWS V14.01,2013-07-13 18:11:00,
2013-07-13 14:15:00,73.4,71.3,30.25,NE,49,0.0,0.0,93,0.00,,,0.04,VWS V14.01,2013-07-13 18:15:00,
2013-07-13 14:16:00,73.4,71.3,30.25,NE,49,0.0,0.0,93,0.00,,,0.04,VWS V14.01,2013-07-13 18:16:00,
2013-07-13 14:20:00,73.6,71.4,30.25,NE,49,0.0,0.0,93,0.00,,,0.04,VWS V14.01,2013-07-13 18:20:00,
2013-07-13 14:21:00,73.6,71.4,30.25,NE,49,0.0,0.0,93,0.00,,,0.04,VWS V14.01,2013-07-13 18:21:00,
2013-07-13 14:25:00,73.8,71.6,30.25,NE,49,0.0,0.0,93,0.00,,,0.04,VWS V14.01,2013-07-13 18:25:00,
2013-07-13 14:26:00,73.8,71.6,30.25,NE,49,0.0,0.0,93,0.00,,,0.04,VWS V14.01,2013-07-13 18:26:00,
2013-07-13 14:30:00,73.9,71.8,30.22,NE,49,0.0,0.0,93,0.00,,,0.04,VWS V14.01,2013-07-13 18:30:00,
2013-07-13 14:31:00,73.9,71.8,30.22,NE,49,0.0,0.0,93,0.00,,,0.04,VWS V14.01,2013-07-13 18:31:00,
2013-07-13 14:35:00,74.1,72.0,30.22,NE,49,0.0,0.0,93,0.00,,,0.04,VWS V14.01,2013-07-13 18:35:00,
2013-07-13 14:36:00,74.1,72.0,30.22,NE,49,0.0,0.0,93,0.00,,,0.04,VWS V14.01,2013-07-13 18:36:00,
2013-07-13 14:40:00,74.1,72.0,30.22,NE,49,0.0,0.0,93,0.00,,,0.04,VWS V14.01,2013-07-13 18:40:00,
2013-07-13 14:41:00,74.3,72.2,30.22,NE,49,0.0,0.0,93,0.00,,,0.04,VWS V14.01,2013-07-13 18:41:00,
2013-07-13 14:45:00,74.5,72.3,30.25,NE,49,0.0,0.0,93,0.00,,,0.04,VWS V14.01,2013-07-13 18:45:00,
2013-07-13 14:46:00,74.7,72.5,30.25,NE,49,0.0,0.0,93,0.00,,,0.04,VWS V14.01,2013-07-13 18:46:00,
2013-07-13 14:50:00,75.0,72.5,30.25,NE,49,0.0,0.0,92,0.00,,,0.04,VWS V14.01,2013-07-13 18:50:00,
2013-07-13 14:51:00,75.2,72.7,30.25,NE,49,0.0,0.0,92,0.00,,,0.04,VWS V14.01,2013-07-13 18:51:00,
2013-07-13 14:55:00,75.4,72.9,30.25,NE,49,0.0,0.0,92,0.00,,,0.04,VWS V14.01,2013-07-13 18:55:00,
2013-07-13 14:57:00,75.4,72.9,30.25,NE,49,0.0,0.0,92,0.00,,,0.04,VWS V14.01,2013-07-13 18:57:00,
2013-07-13 15:00:00,75.6,73.1,30.25,NE,49,0.0,0.0,92,0.00,,,0.04,VWS V14.01,2013-07-13 19:00:00,
2013-07-13 15:02:00,75.6,73.1,30.25,NE,49,0.0,0.0,92,0.00,,,0.04,VWS V14.01,2013-07-13 19:02:00,
2013-07-13 15:05:00,75.6,72.8,30.25,NE,49,0.0,0.0,91,0.00,,,0.04,VWS V14.01,2013-07-13 19:05:00,
2013-07-13 15:07:00,75.7,72.9,30.25,NE,49,0.0,0.0,91,0.00,,,0.04,VWS V14.01,2013-07-13 19:07:00,
2013-07-13 15:10:00,76.1,73.3,30.25,NE,49,0.0,0.0,91,0.00,,,0.04,VWS V14.01,2013-07-13 19:10:00,
2013-07-13 15:12:00,76.1,73.3,30.25,NE,49,0.0,0.0,91,0.00,,,0.04,VWS V14.01,2013-07-13 19:12:00,
2013-07-13 15:15:00,76.3,73.1,30.22,NE,49,0.0,0.0,90,0.00,,,0.04,VWS V14.01,2013-07-13 19:15:00,
2013-07-13 15:17:00,76.1,73.0,30.22,NE,49,0.0,0.0,90,0.00,,,0.04,VWS V14.01,2013-07-13 19:17:00,
2013-07-13 15:20:00,76.1,72.6,30.22,NE,49,0.0,0.0,89,0.00,,,0.04,VWS V14.01,2013-07-13 19:20:00,
2013-07-13 15:22:00,76.1,72.6,30.22,NE,49,0.0,0.0,89,0.00,,,0.04,VWS V14.01,2013-07-13 19:22:00,
2013-07-13 15:25:00,76.3,72.8,30.22,NE,49,0.0,0.0,89,0.00,,,0.04,VWS V14.01,2013-07-13 19:25:00,
2013-07-13 15:27:00,76.3,72.8,30.22,NE,49,0.0,0.0,89,0.00,,,0.04,VWS V14.01,2013-07-13 19:27:00,
2013-07-13 15:30:00,76.6,73.2,30.22,NE,49,0.0,0.0,89,0.00,,,0.04,VWS V14.01,2013-07-13 19:30:00,
2013-07-13 15:32:00,77.0,73.2,30.22,NE,49,0.0,0.0,88,0.00,,,0.04,VWS V14.01,2013-07-13 19:32:00,
2013-07-13 15:35:00,76.6,72.8,30.22,NE,49,0.0,0.0,88,0.00,,,0.04,VWS V14.01,2013-07-13 19:35:00,
2013-07-13 15:37:00,76.3,72.5,30.22,NE,49,0.0,0.0,88,0.00,,,0.04,VWS V14.01,2013-07-13 19:37:00,
2013-07-13 15:40:00,76.1,71.9,30.22,NE,49,0.0,0.0,87,0.00,,,0.04,VWS V14.01,2013-07-13 19:40:00,
2013-07-13 15:42:00,76.1,71.9,30.22,NE,49,0.0,0.0,87,0.00,,,0.04,VWS V14.01,2013-07-13 19:42:00,
2013-07-13 15:45:00,76.1,71.9,30.22,NE,49,0.0,0.0,87,0.00,,,0.04,VWS V14.01,2013-07-13 19:45:00,
2013-07-13 15:47:00,76.1,71.9,30.22,NE,49,0.0,0.0,87,0.00,,,0.04,VWS V14.01,2013-07-13 19:47:00,
2013-07-13 15:50:00,76.1,71.9,30.22,NE,49,0.0,0.0,87,0.00,,,0.04,VWS V14.01,2013-07-13 19:50:00,
2013-07-13 15:52:00,76.3,72.1,30.22,NE,49,0.0,0.0,87,0.00,,,0.04,VWS V14.01,2013-07-13 19:52:00,
2013-07-13 15:55:00,76.6,72.5,30.22,NE,49,0.0,0.0,87,0.00,,,0.04,VWS V14.01,2013-07-13 19:55:00,
2013-07-13 15:57:00,76.8,72.7,30.22,NE,49,0.0,0.0,87,0.00,,,0.04,VWS V14.01,2013-07-13 19:57:00,
2013-07-13 16:00:00,76.8,72.7,30.22,NE,49,0.0,0.0,87,0.00,,,0.04,VWS V14.01,2013-07-13 20:00:00,
2013-07-13 16:02:00,77.0,72.5,30.22,NE,49,0.0,0.0,86,0.00,,,0.04,VWS V14.01,2013-07-13 20:02:00,
2013-07-13 16:05:00,76.8,72.7,30.22,NE,49,0.0,0.0,87,0.00,,,0.04,VWS V14.01,2013-07-13 20:05:00,
2013-07-13 16:07:00,77.0,72.5,30.22,NE,49,0.0,0.0,86,0.00,,,0.04,VWS V14.01,2013-07-13 20:07:00,
2013-07-13 16:10:00,76.8,72.7,30.22,NE,49,0.0,0.0,87,0.00,,,0.04,VWS V14.01,2013-07-13 20:10:00,
2013-07-13 16:12:00,76.6,72.5,30.22,NE,49,0.0,0.0,87,0.00,,,0.04,VWS V14.01,2013-07-13 20:12:00,
2013-07-13 16:15:00,76.5,72.3,30.22,NE,49,0.0,0.0,87,0.00,,,0.04,VWS V14.01,2013-07-13 20:15:00,
2013-07-13 16:17:00,76.3,72.1,30.22,NE,49,0.0,0.0,87,0.00,,,0.04,VWS V14.01,2013-07-13 20:17:00,
2013-07-13 16:20:00,76.3,72.1,30.22,NE,49,0.0,0.0,87,0.00,,,0.04,VWS V14.01,2013-07-13 20:20:00,
2013-07-13 16:22:00,76.3,72.1,30.22,NE,49,0.0,0.0,87,0.00,,,0.04,VWS V14.01,2013-07-13 20:22:00,
2013-07-13 16:25:00,76.3,72.1,30.22,NE,49,0.0,0.0,87,0.00,,,0.04,VWS V14.01,2013-07-13 20:25:00,
2013-07-13 16:27:00,76.8,72.7,30.22,NE,49,0.0,0.0,87,0.00,,,0.04,VWS V14.01,2013-07-13 20:27:00,
2013-07-13 16:30:00,77.2,73.0,30.22,NE,49,0.0,0.0,87,0.00,,,0.04,VWS V14.01,2013-07-13 20:30:00,
2013-07-13 16:33:00,77.7,73.6,30.22,NE,49,0.0,0.0,87,0.00,,,0.04,VWS V14.01,2013-07-13 20:33:00,
2013-07-13 16:35:00,77.7,73.2,30.22,NE,49,0.0,0.0,86,0.00,,,0.04,VWS V14.01,2013-07-13 20:35:00,
2013-07-13 16:38:00,77.2,72.3,30.22,NE,49,0.0,0.0,85,0.00,,,0.04,VWS V14.01,2013-07-13 20:38:00,
2013-07-13 16:40:00,77.0,72.2,30.22,NE,49,0.0,0.0,85,0.04,,,0.08,VWS V14.01,2013-07-13 20:40:00,
2013-07-13 16:43:00,76.8,72.3,30.22,NE,49,0.0,0.0,86,0.04,,,0.08,VWS V14.01,2013-07-13 20:43:00,
2013-07-13 16:45:00,76.8,72.3,30.22,NE,49,0.0,0.0,86,0.04,,,0.08,VWS V14.01,2013-07-13 20:45:00,
2013-07-13 16:48:00,76.8,72.3,30.22,NE,49,0.0,0.0,86,0.04,,,0.08,VWS V14.01,2013-07-13 20:48:00,
2013-07-13 16:50:00,77.0,72.5,30.22,NE,49,0.0,0.0,86,0.04,,,0.08,VWS V14.01,2013-07-13 20:50:00,
2013-07-13 16:53:00,76.8,72.3,30.22,NE,49,0.0,0.0,86,0.04,,,0.08,VWS V14.01,2013-07-13 20:53:00,
2013-07-13 16:55:00,77.0,72.5,30.22,NE,49,0.0,0.0,86,0.04,,,0.08,VWS V14.01,2013-07-13 20:55:00,
2013-07-13 16:58:00,76.8,72.7,30.22,NE,49,0.0,0.0,87,0.04,,,0.08,VWS V14.01,2013-07-13 20:58:00,
2013-07-13 17:00:00,76.6,72.5,30.22,NE,49,0.0,0.0,87,0.04,,,0.08,VWS V14.01,2013-07-13 21:00:00,
2013-07-13 17:03:00,76.6,72.1,30.22,NE,49,0.0,0.0,86,0.04,,,0.08,VWS V14.01,2013-07-13 21:03:00,
2013-07-13 17:05:00,76.6,72.1,30.22,NE,49,0.0,0.0,86,0.04,,,0.08,VWS V14.01,2013-07-13 21:05:00,
2013-07-13 17:08:00,76.8,72.3,30.22,NE,49,0.0,0.0,86,0.04,,,0.08,VWS V14.01,2013-07-13 21:08:00,
2013-07-13 17:10:00,76.8,72.3,30.22,NE,49,0.0,0.0,86,0.04,,,0.08,VWS V14.01,2013-07-13 21:10:00,
2013-07-13 17:13:00,76.8,72.3,30.22,NE,49,0.0,0.0,86,0.04,,,0.08,VWS V14.01,2013-07-13 21:13:00,
2013-07-13 17:15:00,76.8,72.7,30.22,NE,49,0.0,0.0,87,0.04,,,0.08,VWS V14.01,2013-07-13 21:15:00,
2013-07-13 17:18:00,76.8,72.7,30.22,NE,49,0.0,4.0,87,0.04,,,0.08,VWS V14.01,2013-07-13 21:18:00,
2013-07-13 17:20:00,76.6,72.5,30.22,NE,49,2.7,4.0,87,0.04,,,0.08,VWS V14.01,2013-07-13 21:20:00,
2013-07-13 17:23:00,76.6,72.5,30.22,NE,49,0.0,2.7,87,0.04,,,0.08,VWS V14.01,2013-07-13 21:23:00,
2013-07-13 17:25:00,76.5,72.3,30.22,NE,49,0.0,2.7,87,0.04,,,0.08,VWS V14.01,2013-07-13 21:25:00,
2013-07-13 17:28:00,76.6,72.5,30.22,NE,49,0.0,2.7,87,0.04,,,0.08,VWS V14.01,2013-07-13 21:28:00,
2013-07-13 17:30:00,76.6,72.5,30.22,NE,49,0.0,2.7,87,0.04,,,0.08,VWS V14.01,2013-07-13 21:30:00,
2013-07-13 17:33:00,76.6,72.5,30.22,NE,49,0.0,0.0,87,0.04,,,0.08,VWS V14.01,2013-07-13 21:33:00,
2013-07-13 17:35:00,76.8,72.3,30.22,NE,49,0.0,0.0,86,0.04,,,0.08,VWS V14.01,2013-07-13 21:35:00,
2013-07-13 17:38:00,76.8,72.3,30.22,NE,49,0.0,0.0,86,0.04,,,0.08,VWS V14.01,2013-07-13 21:38:00,
2013-07-13 17:40:00,76.8,72.3,30.22,NE,49,0.0,0.0,86,0.04,,,0.08,VWS V14.01,2013-07-13 21:40:00,
2013-07-13 17:43:00,76.8,72.3,30.22,NE,49,0.0,0.0,86,0.00,,,0.08,VWS V14.01,2013-07-13 21:43:00,
2013-07-13 17:45:00,76.6,72.1,30.22,NE,49,0.0,0.0,86,0.00,,,0.08,VWS V14.01,2013-07-13 21:45:00,
2013-07-13 17:48:00,76.6,72.5,30.22,NE,49,0.0,2.2,87,0.00,,,0.08,VWS V14.01,2013-07-13 21:48:00,
2013-07-13 17:50:00,76.5,72.0,30.22,NE,49,0.0,3.1,86,0.00,,,0.08,VWS V14.01,2013-07-13 21:50:00,
2013-07-13 17:53:00,76.5,72.0,30.22,NE,49,2.2,2.2,86,0.00,,,0.08,VWS V14.01,2013-07-13 21:53:00,
2013-07-13 17:55:00,76.5,72.0,30.22,NE,49,0.0,2.2,86,0.00,,,0.08,VWS V14.01,2013-07-13 21:55:00,
2013-07-13 17:58:00,76.3,71.8,30.25,NE,49,0.0,0.0,86,0.00,,,0.08,VWS V14.01,2013-07-13 21:58:00,
2013-07-13 18:00:00,76.3,71.8,30.25,NE,49,0.0,0.0,86,0.00,,,0.08,VWS V14.01,2013-07-13 22:00:00,
2013-07-13 18:03:00,76.3,71.8,30.25,NE,49,0.0,0.0,86,0.00,,,0.08,VWS V14.01,2013-07-13 22:03:00,
2013-07-13 18:05:00,76.3,72.1,30.25,NE,49,0.0,0.0,87,0.00,,,0.08,VWS V14.01,2013-07-13 22:05:00,
2013-07-13 18:08:00,76.3,72.1,30.25,NE,49,0.0,3.1,87,0.00,,,0.08,VWS V14.01,2013-07-13 22:08:00,
2013-07-13 18:10:00,76.3,72.1,30.25,NE,49,2.7,3.1,87,0.00,,,0.08,VWS V14.01,2013-07-13 22:10:00,
2013-07-13 18:13:00,76.3,71.8,30.25,NE,49,2.7,3.1,86,0.00,,,0.08,VWS V14.01,2013-07-13 22:13:00,
2013-07-13 18:15:00,76.3,71.8,30.25,NE,49,2.2,3.1,86,0.00,,,0.08,VWS V14.01,2013-07-13 22:15:00,
2013-07-13 18:18:00,76.3,71.8,30.25,NE,49,0.0,2.2,86,0.00,,,0.08,VWS V14.01,2013-07-13 22:18:00,
2013-07-13 18:20:00,76.1,71.6,30.25,NE,49,0.0,2.2,86,0.00,,,0.08,VWS V14.01,2013-07-13 22:20:00,
2013-07-13 18:23:00,76.3,71.8,30.25,NE,49,0.0,0.0,86,0.00,,,0.08,VWS V14.01,2013-07-13 22:23:00,
2013-07-13 18:25:00,76.3,71.8,30.25,NE,49,0.0,0.0,86,0.00,,,0.08,VWS V14.01,2013-07-13 22:25:00,
2013-07-13 18:28:00,76.5,72.0,30.25,NE,49,2.7,2.7,86,0.00,,,0.08,VWS V14.01,2013-07-13 22:28:00,
2013-07-13 18:30:00,76.5,72.0,30.25,East,99,3.1,3.6,86,0.00,,,0.08,VWS V14.01,2013-07-13 22:30:00,
2013-07-13 18:33:00,76.5,72.0,30.25,East,100,0.0,3.1,86,0.00,,,0.08,VWS V14.01,2013-07-13 22:33:00,
2013-07-13 18:35:00,76.5,72.0,30.25,East,100,0.0,3.1,86,0.00,,,0.08,VWS V14.01,2013-07-13 22:35:00,
2013-07-13 18:38:00,76.5,72.0,30.25,East,100,0.0,0.0,86,0.00,,,0.08,VWS V14.01,2013-07-13 22:38:00,
2013-07-13 18:40:00,76.3,71.8,30.25,SSE,160,3.1,3.6,86,0.00,,,0.08,VWS V14.01,2013-07-13 22:40:00,
2013-07-13 18:43:00,76.3,71.8,30.25,SSE,158,0.0,5.8,86,0.00,,,0.08,VWS V14.01,2013-07-13 22:43:00,
2013-07-13 18:45:00,76.1,71.6,30.25,SSE,157,0.0,5.8,86,0.00,,,0.08,VWS V14.01,2013-07-13 22:45:00,
2013-07-13 18:48:00,76.1,71.6,30.25,SE,140,3.6,4.9,86,0.00,,,0.08,VWS V14.01,2013-07-13 22:48:00,
2013-07-13 18:50:00,76.3,71.8,30.25,SE,140,0.0,4.9,86,0.00,,,0.08,VWS V14.01,2013-07-13 22:50:00,
2013-07-13 18:53:00,76.3,71.8,30.25,SE,145,0.0,5.8,86,0.00,,,0.08,VWS V14.01,2013-07-13 22:53:00,
2013-07-13 18:55:00,76.1,71.6,30.25,SE,145,0.0,5.8,86,0.00,,,0.08,VWS V14.01,2013-07-13 22:55:00,
2013-07-13 18:58:00,76.1,71.6,30.25,SE,145,0.0,0.0,86,0.00,,,0.08,VWS V14.01,2013-07-13 22:58:00,
2013-07-13 19:00:00,76.1,71.6,30.25,SE,145,0.0,0.0,86,0.00,,,0.08,VWS V14.01,2013-07-13 23:00:00,
2013-07-13 19:03:00,76.1,71.6,30.25,SE,145,0.0,0.0,86,0.00,,,0.08,VWS V14.01,2013-07-13 23:03:00,
2013-07-13 19:05:00,76.1,71.9,30.25,SE,145,0.0,0.0,87,0.00,,,0.08,VWS V14.01,2013-07-13 23:05:00,
2013-07-13 19:08:00,76.1,71.9,30.25,SE,145,0.0,0.0,87,0.00,,,0.08,VWS V14.01,2013-07-13 23:08:00,
2013-07-13 19:10:00,76.1,71.9,30.25,SE,145,0.0,0.0,87,0.00,,,0.08,VWS V14.01,2013-07-13 23:10:00,
2013-07-13 19:13:00,75.9,71.8,30.25,SE,145,0.0,0.0,87,0.00,,,0.08,VWS V14.01,2013-07-13 23:13:00,
2013-07-13 19:15:00,75.9,71.8,30.25,SE,145,0.0,0.0,87,0.00,,,0.08,VWS V14.01,2013-07-13 23:15:00,
2013-07-13 19:18:00,75.9,71.8,30.25,SE,145,0.0,0.0,87,0.00,,,0.08,VWS V14.01,2013-07-13 23:18:00,
2013-07-13 19:20:00,75.9,71.8,30.25,SE,145,0.0,0.0,87,0.00,,,0.08,VWS V14.01,2013-07-13 23:20:00,
2013-07-13 19:23:00,75.9,71.8,30.25,SE,145,0.0,0.0,87,0.00,,,0.08,VWS V14.01,2013-07-13 23:23:00,
2013-07-13 19:25:00,75.9,71.8,30.25,SE,145,0.0,0.0,87,0.00,,,0.08,VWS V14.01,2013-07-13 23:25:00,
2013-07-13 19:28:00,75.7,71.6,30.25,SE,145,0.0,0.0,87,0.00,,,0.08,VWS V14.01,2013-07-13 23:28:00,
2013-07-13 19:30:00,75.9,71.8,30.25,SE,145,0.0,0.0,87,0.00,,,0.08,VWS V14.01,2013-07-13 23:30:00,
2013-07-13 19:33:00,75.9,71.8,30.25,SE,145,0.0,0.0,87,0.00,,,0.08,VWS V14.01,2013-07-13 23:33:00,
2013-07-13 19:35:00,75.9,71.8,30.25,SE,145,0.0,2.2,87,0.00,,,0.08,VWS V14.01,2013-07-13 23:35:00,
2013-07-13 19:38:00,75.7,71.6,30.25,SSE,159,2.2,4.0,87,0.00,,,0.08,VWS V14.01,2013-07-13 23:38:00,
2013-07-13 19:40:00,75.7,71.6,30.25,SSE,159,0.0,4.0,87,0.00,,,0.08,VWS V14.01,2013-07-13 23:40:00,
2013-07-13 19:43:00,75.7,71.6,30.25,SSE,159,0.0,2.7,87,0.00,,,0.08,VWS V14.01,2013-07-13 23:43:00,
2013-07-13 19:45:00,75.7,71.6,30.25,SSE,159,0.0,2.7,87,0.00,,,0.08,VWS V14.01,2013-07-13 23:45:00,
2013-07-13 19:48:00,75.6,71.1,30.25,SSE,159,0.0,0.0,86,0.00,,,0.08,VWS V14.01,2013-07-13 23:48:00,
2013-07-13 19:50:00,75.6,71.1,30.25,SSE,159,0.0,2.7,86,0.00,,,0.08,VWS V14.01,2013-07-13 23:50:00,
2013-07-13 19:53:00,75.6,71.1,30.25,SSE,159,2.7,3.1,86,0.00,,,0.08,VWS V14.01,2013-07-13 23:53:00,
2013-07-13 19:55:00,75.6,71.1,30.25,SSE,159,0.0,3.1,86,0.00,,,0.08,VWS V14.01,2013-07-13 23:55:00,
2013-07-13 19:58:00,75.4,70.9,30.25,SSE,159,0.0,2.2,86,0.00,,,0.08,VWS V14.01,2013-07-13 23:58:00,
2013-07-13 20:00:00,75.4,70.9,30.25,SSE,159,0.0,2.2,86,0.00,,,0.08,VWS V14.01,2013-07-14 00:00:00,
2013-07-13 20:03:00,75.4,70.9,30.25,SSE,159,0.0,0.0,86,0.00,,,0.08,VWS V14.01,2013-07-14 00:03:00,
2013-07-13 20:05:00,75.4,70.9,30.25,SSE,159,0.0,0.0,86,0.00,,,0.08,VWS V14.01,2013-07-14 00:05:00,
2013-07-13 20:08:00,75.4,70.9,30.25,SSE,159,0.0,0.0,86,0.00,,,0.08,VWS V14.01,2013-07-14 00:08:00,
2013-07-13 20:10:00,75.2,70.7,30.25,SSE,159,2.2,2.2,86,0.00,,,0.08,VWS V14.01,2013-07-14 00:10:00,
2013-07-13 20:13:00,75.2,70.7,30.25,SSE,159,0.0,2.2,86,0.00,,,0.08,VWS V14.01,2013-07-14 00:13:00,
2013-07-13 20:15:00,75.2,70.7,30.25,SSE,159,0.0,2.2,86,0.00,,,0.08,VWS V14.01,2013-07-14 00:15:00,
2013-07-13 20:18:00,75.2,71.1,30.25,SSE,159,0.0,0.0,87,0.00,,,0.08,VWS V14.01,2013-07-14 00:18:00,
2013-07-13 20:20:00,75.2,71.1,30.25,SSE,159,0.0,0.0,87,0.00,,,0.08,VWS V14.01,2013-07-14 00:20:00,
2013-07-13 20:23:00,75.0,70.9,30.25,SSE,159,0.0,0.0,87,0.00,,,0.08,VWS V14.01,2013-07-14 00:23:00,
2013-07-13 20:25:00,75.0,70.9,30.25,SSE,159,0.0,0.0,87,0.00,,,0.08,VWS V14.01,2013-07-14 00:25:00,
2013-07-13 20:28:00,75.0,70.9,30.28,SSE,159,0.0,0.0,87,0.00,,,0.08,VWS V14.01,2013-07-14 00:28:00,
2013-07-13 20:30:00,75.0,71.2,30.28,SSE,159,0.0,0.0,88,0.00,,,0.08,VWS V14.01,2013-07-14 00:30:00,
2013-07-13 20:33:00,74.8,71.1,30.28,SSE,159,0.0,0.0,88,0.00,,,0.08,VWS V14.01,2013-07-14 00:33:00,
2013-07-13 20:35:00,74.8,71.1,30.28,SSE,159,0.0,0.0,88,0.00,,,0.08,VWS V14.01,2013-07-14 00:35:00,
2013-07-13 20:38:00,74.8,71.1,30.28,SSE,159,0.0,0.0,88,0.00,,,0.08,VWS V14.01,2013-07-14 00:38:00,
2013-07-13 20:40:00,74.7,70.9,30.28,SSE,159,0.0,0.0,88,0.00,,,0.08,VWS V14.01,2013-07-14 00:40:00,
2013-07-13 20:44:00,74.7,70.9,30.28,SSE,159,0.0,0.0,88,0.00,,,0.08,VWS V14.01,2013-07-14 00:44:00,
2013-07-13 20:45:00,74.7,70.9,30.28,SSE,159,0.0,0.0,88,0.00,,,0.08,VWS V14.01,2013-07-14 00:45:00,
2013-07-13 20:49:00,74.5,70.7,30.28,SSE,159,0.0,0.0,88,0.00,,,0.08,VWS V14.01,2013-07-14 00:49:00,
2013-07-13 20:50:00,74.5,70.7,30.28,SSE,159,0.0,0.0,88,0.00,,,0.08,VWS V14.01,2013-07-14 00:50:00,
2013-07-13 20:54:00,74.3,70.8,30.28,SSE,159,0.0,0.0,89,0.00,,,0.08,VWS V14.01,2013-07-14 00:54:00,
2013-07-13 20:55:00,74.3,70.8,30.28,SSE,159,0.0,0.0,89,0.00,,,0.08,VWS V14.01,2013-07-14 00:55:00,
2013-07-13 20:59:00,74.5,71.0,30.28,SSE,159,2.7,2.7,89,0.00,,,0.08,VWS V14.01,2013-07-14 00:59:00,
2013-07-13 21:00:00,74.5,71.0,30.28,SSE,159,0.0,2.7,89,0.00,,,0.08,VWS V14.01,2013-07-14 01:00:00,
2013-07-13 21:04:00,74.5,71.0,30.28,SSE,159,0.0,0.0,89,0.00,,,0.08,VWS V14.01,2013-07-14 01:04:00,
2013-07-13 21:05:00,74.5,71.0,30.28,SSE,159,0.0,0.0,89,0.00,,,0.08,VWS V14.01,2013-07-14 01:05:00,
2013-07-13 21:09:00,74.3,70.8,30.28,SSE,159,0.0,0.0,89,0.00,,,0.08,VWS V14.01,2013-07-14 01:09:00,
2013-07-13 21:10:00,74.3,70.8,30.28,SSE,159,0.0,0.0,89,0.00,,,0.08,VWS V14.01,2013-07-14 01:10:00,
2013-07-13 21:14:00,74.3,71.2,30.28,SSE,159,0.0,0.0,90,0.00,,,0.08,VWS V14.01,2013-07-14 01:14:00,
2013-07-13 21:15:00,74.5,71.4,30.28,SSE,159,0.0,0.0,90,0.00,,,0.08,VWS V14.01,2013-07-14 01:15:00,
2013-07-13 21:19:00,74.3,71.2,30.28,SSE,159,0.0,0.0,90,0.00,,,0.08,VWS V14.01,2013-07-14 01:19:00,
2013-07-13 21:20:00,74.3,71.2,30.28,SSE,159,0.0,0.0,90,0.00,,,0.08,VWS V14.01,2013-07-14 01:20:00,
2013-07-13 21:24:00,74.3,71.2,30.28,SSE,159,0.0,0.0,90,0.00,,,0.08,VWS V14.01,2013-07-14 01:24:00,
2013-07-13 21:25:00,74.3,71.2,30.28,SSE,159,0.0,0.0,90,0.00,,,0.08,VWS V14.01,2013-07-14 01:25:00,
2013-07-13 21:29:00,74.3,71.2,30.28,SSE,159,0.0,0.0,90,0.00,,,0.08,VWS V14.01,2013-07-14 01:29:00,
2013-07-13 21:30:00,74.3,71.2,30.28,SSE,159,0.0,0.0,90,0.00,,,0.08,VWS V14.01,2013-07-14 01:30:00,
2013-07-13 21:34:00,74.3,71.2,30.28,SSE,159,0.0,2.2,90,0.00,,,0.08,VWS V14.01,2013-07-14 01:34:00,
2013-07-13 21:35:00,74.3,71.2,30.28,SSE,159,0.0,2.2,90,0.00,,,0.08,VWS V14.01,2013-07-14 01:35:00,
2013-07-13 21:39:00,74.3,71.2,30.28,SSE,159,0.0,4.0,90,0.00,,,0.08,VWS V14.01,2013-07-14 01:39:00,
2013-07-13 21:40:00,74.3,71.2,30.28,SSE,159,0.0,4.0,90,0.00,,,0.08,VWS V14.01,2013-07-14 01:40:00,
2013-07-13 21:44:00,74.3,71.2,30.28,SSE,159,0.0,0.0,90,0.00,,,0.08,VWS V14.01,2013-07-14 01:44:00,
2013-07-13 21:45:00,74.3,71.2,30.28,SSE,159,0.0,0.0,90,0.00,,,0.08,VWS V14.01,2013-07-14 01:45:00,
2013-07-13 21:49:00,74.1,71.0,30.28,SSE,159,0.0,2.2,90,0.00,,,0.08,VWS V14.01,2013-07-14 01:49:00,
2013-07-13 21:50:00,74.1,71.0,30.28,SSE,159,0.0,2.2,90,0.00,,,0.08,VWS V14.01,2013-07-14 01:50:00,
2013-07-13 21:54:00,74.1,71.0,30.28,SSE,159,0.0,0.0,90,0.00,,,0.08,VWS V14.01,2013-07-14 01:54:00,
2013-07-13 21:55:00,74.1,71.0,30.28,SSE,159,0.0,0.0,90,0.00,,,0.08,VWS V14.01,2013-07-14 01:55:00,
2013-07-13 21:59:00,74.1,71.0,30.28,SSE,159,0.0,0.0,90,0.00,,,0.08,VWS V14.01,2013-07-14 01:59:00,
2013-07-13 22:00:00,74.1,71.0,30.28,SSE,159,0.0,0.0,90,0.00,,,0.08,VWS V14.01,2013-07-14 02:00:00,
2013-07-13 22:04:00,74.1,71.0,30.28,SSE,159,0.0,0.0,90,0.00,,,0.08,VWS V14.01,2013-07-14 02:04:00,
2013-07-13 22:05:00,74.1,71.0,30.28,SSE,159,0.0,0.0,90,0.00,,,0.08,VWS V14.01,2013-07-14 02:05:00,
2013-07-13 22:10:00,74.1,71.0,30.28,SSE,159,0.0,0.0,90,0.00,,,0.08,VWS V14.01,2013-07-14 02:10:00,
2013-07-13 22:11:00,74.1,71.0,30.28,SSE,159,0.0,0.0,90,0.00,,,0.08,VWS V14.01,2013-07-14 02:11:00,
2013-07-13 22:15:00,74.1,71.0,30.28,SSE,159,0.0,0.0,90,0.00,,,0.08,VWS V14.01,2013-07-14 02:15:00,
2013-07-13 22:16:00,74.1,71.0,30.28,SSE,159,0.0,0.0,90,0.00,,,0.08,VWS V14.01,2013-07-14 02:16:00,
2013-07-13 22:20:00,74.1,71.0,30.28,SSE,159,0.0,2.2,90,0.00,,,0.08,VWS V14.01,2013-07-14 02:20:00,
2013-07-13 22:21:00,74.1,71.0,30.28,SSE,159,0.0,0.0,90,0.00,,,0.08,VWS V14.01,2013-07-14 02:21:00,
2013-07-13 22:25:00,74.1,71.0,30.28,SSE,159,0.0,0.0,90,0.00,,,0.08,VWS V14.01,2013-07-14 02:25:00,
2013-07-13 22:26:00,74.1,71.0,30.28,SSE,159,0.0,0.0,90,0.00,,,0.08,VWS V14.01,2013-07-14 02:26:00,
2013-07-13 22:30:00,74.1,71.3,30.28,SSE,159,0.0,0.0,91,0.00,,,0.08,VWS V14.01,2013-07-14 02:30:00,
2013-07-13 22:31:00,74.1,71.3,30.28,SSE,159,0.0,0.0,91,0.00,,,0.08,VWS V14.01,2013-07-14 02:31:00,
2013-07-13 22:35:00,73.9,71.2,30.28,SSE,159,0.0,0.0,91,0.00,,,0.08,VWS V14.01,2013-07-14 02:35:00,
2013-07-13 22:36:00,73.9,71.2,30.28,SSE,159,0.0,0.0,91,0.00,,,0.08,VWS V14.01,2013-07-14 02:36:00,
2013-07-13 22:40:00,73.8,71.0,30.28,SSE,159,0.0,0.0,91,0.00,,,0.08,VWS V14.01,2013-07-14 02:40:00,
2013-07-13 22:41:00,73.8,71.0,30.28,SSE,159,0.0,0.0,91,0.00,,,0.08,VWS V14.01,2013-07-14 02:41:00,
2013-07-13 22:45:00,73.8,71.0,30.28,SSE,159,0.0,0.0,91,0.00,,,0.08,VWS V14.01,2013-07-14 02:45:00,
2013-07-13 22:46:00,73.8,71.0,30.28,SSE,159,0.0,0.0,91,0.00,,,0.08,VWS V14.01,2013-07-14 02:46:00,
2013-07-13 22:50:00,73.8,71.0,30.28,SSE,159,0.0,0.0,91,0.00,,,0.08,VWS V14.01,2013-07-14 02:50:00,
2013-07-13 22:51:00,73.8,71.0,30.28,SSE,159,0.0,0.0,91,0.00,,,0.08,VWS V14.01,2013-07-14 02:51:00,
2013-07-13 22:55:00,73.8,71.3,30.28,SSE,159,0.0,0.0,92,0.00,,,0.08,VWS V14.01,2013-07-14 02:55:00,
2013-07-13 22:56:00,73.8,71.3,30.28,SSE,159,0.0,0.0,92,0.00,,,0.08,VWS V14.01,2013-07-14 02:56:00,
2013-07-13 23:00:00,73.8,71.3,30.28,SSE,159,0.0,0.0,92,0.00,,,0.08,VWS V14.01,2013-07-14 03:00:00,
2013-07-13 23:01:00,73.8,71.3,30.28,SSE,159,0.0,0.0,92,0.00,,,0.08,VWS V14.01,2013-07-14 03:01:00,
2013-07-13 23:05:00,73.8,71.3,30.28,SSE,159,0.0,0.0,92,0.00,,,0.08,VWS V14.01,2013-07-14 03:05:00,
2013-07-13 23:06:00,73.8,71.3,30.28,SSE,159,0.0,0.0,92,0.00,,,0.08,VWS V14.01,2013-07-14 03:06:00,
2013-07-13 23:10:00,73.8,71.3,30.28,SSE,159,0.0,0.0,92,0.00,,,0.08,VWS V14.01,2013-07-14 03:10:00,
2013-07-13 23:11:00,73.8,71.3,30.28,SSE,159,0.0,0.0,92,0.00,,,0.08,VWS V14.01,2013-07-14 03:11:00,
2013-07-13 23:15:00,73.8,71.3,30.28,SSE,159,0.0,0.0,92,0.00,,,0.08,VWS V14.01,2013-07-14 03:15:00,
2013-07-13 23:16:00,73.8,71.3,30.28,SSE,159,0.0,0.0,92,0.00,,,0.08,VWS V14.01,2013-07-14 03:16:00,
2013-07-13 23:20:00,73.8,71.3,30.28,SSE,159,0.0,0.0,92,0.00,,,0.08,VWS V14.01,2013-07-14 03:20:00,
2013-07-13 23:21:00,73.8,71.3,30.28,SSE,159,0.0,0.0,92,0.00,,,0.08,VWS V14.01,2013-07-14 03:21:00,
2013-07-13 23:25:00,73.8,71.3,30.28,SSE,159,0.0,0.0,92,0.00,,,0.08,VWS V14.01,2013-07-14 03:25:00,
2013-07-13 23:26:00,73.8,71.3,30.28,SSE,159,0.0,0.0,92,0.00,,,0.08,VWS V14.01,2013-07-14 03:26:00,
2013-07-13 23:30:00,73.8,71.3,30.28,SSE,159,0.0,0.0,92,0.00,,,0.08,VWS V14.01,2013-07-14 03:30:00,
2013-07-13 23:31:00,73.8,71.3,30.28,SSE,159,0.0,0.0,92,0.00,,,0.08,VWS V14.01,2013-07-14 03:31:00,
2013-07-13 23:35:00,73.8,71.3,30.28,SSE,159,0.0,0.0,92,0.00,,,0.08,VWS V14.01,2013-07-14 03:35:00,
2013-07-13 23:36:00,73.8,71.3,30.28,SSE,159,0.0,0.0,92,0.00,,,0.08,VWS V14.01,2013-07-14 03:36:00,
2013-07-13 23:40:00,73.6,71.1,30.28,SSE,159,0.0,0.0,92,0.00,,,0.08,VWS V14.01,2013-07-14 03:40:00,
2013-07-13 23:41:00,73.6,71.1,30.28,SSE,159,0.0,0.0,92,0.00,,,0.08,VWS V14.01,2013-07-14 03:41:00,
2013-07-13 23:45:00,73.6,71.1,30.28,SSE,159,0.0,0.0,92,0.00,,,0.08,VWS V14.01,2013-07-14 03:45:00,
2013-07-13 23:46:00,73.6,71.1,30.28,SSE,159,0.0,0.0,92,0.00,,,0.08,VWS V14.01,2013-07-14 03:46:00,
2013-07-13 23:50:00,73.6,71.1,30.28,SSE,159,0.0,0.0,92,0.00,,,0.08,VWS V14.01,2013-07-14 03:50:00,
2013-07-13 23:51:00,73.6,71.1,30.28,SSE,159,0.0,0.0,92,0.00,,,0.08,VWS V14.01,2013-07-14 03:51:00,
2013-07-13 23:55:00,73.4,70.9,30.28,SSE,159,0.0,3.1,92,0.00,,,0.08,VWS V14.01,2013-07-14 03:55:00,
2013-07-13 23:56:00,73.4,70.9,30.28,SSE,159,0.0,0.0,92,0.00,,,0.08,VWS V14.01,2013-07-14 03:56:00,